Pearl, MS

3:50 PM CST on January 17, 2017 (GMT -0600)
Jackson-Evers International

Weather History for KJAN - February, 2013

Change the Weather History Date:

Wednesday, February 27, 2013

  Actual Average Record
Temperature  
Mean Temperature 47 °F 53 °F  
Max Temperature 62 °F 64 °F 86 °F (1918)
Min Temperature 32 °F 41 °F 21 °F (2002)
Degree Days  
Heating Degree Days 18 13  
Month to date heating degree days 404 425  
Since 1 July heating degree days 1730 1977  
Cooling Degree Days 0 0  
Month to date cooling degree days 0 0  
Year to date cooling degree days 14 4  
Moisture  
Dew Point 35 °F    
Average Humidity 66    
Maximum Humidity 96    
Minimum Humidity 36    
Precipitation  
Precipitation 0.00 in 0.17 in 2.11 in (1913)
Month to date precipitation 8.86 4.60  
Year to date precipitation 17.44 9.57  
Sea Level Pressure  
Sea Level Pressure 29.98 in    
Wind  
Wind Speed 4 mph (WNW)    
Max Wind Speed 18 mph    
Max Gust Speed 25 mph    
Visibility 10 miles    
Events      
T = Trace of Precipitation, MM = Missing Value Source: NWS Daily Summary

Daily Weather History Graph

Daily Weather History Graph

Search for Another Location

Airport or City:

Trip Planner

Search our weather history database for the weather conditions in past years. The results will help you decide how hot, cold, wet, or windy it might be!

Date:

Astronomy

Feb. 27, 2013 Rise Set
Actual Time 6:29 AM CST 5:56 PM CST
Civil Twilight 6:05 AM CST 6:21 PM CST
Nautical Twilight 5:36 AM CST 6:49 PM CST
Astronomical Twilight 5:08 AM CST 7:18 PM CST
Moon 8:06 PM CST (2/27) 7:14 AM CST (2/27)
Length of Visible Light 12h 16m
Length of Day
11h 26m
Waning Gibbous, 96% of the Moon is Illuminated
Feb 27
Waning Gibbous
Mar 4
Last Quarter
Mar 11
New
Mar 19
First Quarter
Mar 27
Full

Hourly Weather History & Observations

Time (CST) Temp. Windchill Dew Point Humidity Pressure Visibility Wind Dir Wind Speed Gust Speed Precip Events Conditions
12:54 AM 35.1 °F - 32.0 °F 89% 29.93 in 10.0 mi Calm Calm - N/A   Clear
1:54 AM 35.1 °F - 33.1 °F 92% 29.93 in 10.0 mi Calm Calm - N/A   Clear
2:54 AM 36.0 °F - 33.1 °F 89% 29.94 in 9.0 mi Calm Calm - N/A   Clear
4:54 AM 33.1 °F - 30.0 °F 89% 29.94 in 8.0 mi Calm Calm - N/A   Clear
5:54 AM 33.8 °F - 30.2 °F 87% 29.93 in 8.0 mi Calm Calm - N/A   Clear
6:54 AM 32.0 °F - 30.0 °F 92% 29.95 in 8.0 mi Calm Calm - N/A   Clear
7:54 AM 39.9 °F - 36.0 °F 86% 29.97 in 9.0 mi Calm Calm - N/A   Clear
8:54 AM 46.4 °F - 35.6 °F 66% 29.99 in 10.0 mi Calm Calm - N/A   Clear
9:54 AM 50.0 °F - 37.0 °F 61% 30.00 in 10.0 mi Calm Calm - N/A   Clear
10:54 AM 55.0 °F - 37.0 °F 51% 30.01 in 10.0 mi Variable 5.8 mph - N/A   Clear
11:54 AM 57.9 °F - 35.1 °F 42% 30.01 in 10.0 mi West 13.8 mph 21.9 mph N/A   Clear
12:54 PM 59.0 °F - 35.1 °F 41% 29.97 in 10.0 mi Variable 3.5 mph - N/A   Partly Cloudy
1:54 PM 61.0 °F - 36.0 °F 39% 29.95 in 10.0 mi West 13.8 mph 19.6 mph N/A   Partly Cloudy
2:54 PM 61.0 °F - 34.0 °F 36% 29.95 in 10.0 mi WNW 10.4 mph 20.7 mph N/A   Partly Cloudy
3:54 PM 60.1 °F - 34.0 °F 38% 29.95 in 10.0 mi West 11.5 mph 21.9 mph N/A   Partly Cloudy
4:54 PM 57.9 °F - 34.0 °F 41% 29.97 in 10.0 mi WNW 9.2 mph 18.4 mph N/A   Scattered Clouds
5:54 PM 55.0 °F - 36.0 °F 49% 29.97 in 10.0 mi WNW 8.1 mph - N/A   Mostly Cloudy
6:54 PM 51.1 °F - 36.0 °F 56% 29.99 in 10.0 mi Calm Calm - N/A   Partly Cloudy
7:54 PM 44.6 °F - 37.4 °F 76% 29.99 in 10.0 mi Calm Calm - N/A   Partly Cloudy
8:54 PM 50.0 °F - 37.0 °F 61% 30.01 in 10.0 mi NW 6.9 mph - N/A   Partly Cloudy
9:54 PM 48.9 °F - 35.1 °F 59% 30.02 in 10.0 mi NW 4.6 mph - N/A   Partly Cloudy
10:54 PM 45.0 °F 42.6 °F 35.1 °F 68% 30.03 in 10.0 mi NW 4.6 mph - N/A   Clear
11:54 PM 44.6 °F 40.2 °F 35.6 °F 71% 30.05 in 10.0 mi NNW 8.1 mph - N/A   Clear